Tracy, MN

1:00 AM CDT on July 22, 2017 (GMT -0500)
Tracy

Weather History for KTKC - April, 2012

Change the Weather History Date:

Thursday, April 19, 2012

  Actual Average (KMML) Record (KMML)
Temperature  
Mean Temperature 39 °F -  
Max Temperature 42 °F 58 °F 90 °F (1987)
Min Temperature 36 °F 39 °F 19 °F (2013)
Degree Days  
Heating Degree Days 26    
Moisture  
Dew Point 36 °F    
Average Humidity 87    
Maximum Humidity 91    
Minimum Humidity 83    
Precipitation  
Precipitation 0.26 in - - ()
Sea Level Pressure  
Sea Level Pressure 29.97 in    
Wind  
Wind Speed 8 mph (NE)    
Max Wind Speed 17 mph    
Max Gust Speed 24 mph    
Visibility 10 miles    
Events Rain    
Averages and records for this station are not official NWS values.
T = Trace of Precipitation, MM = Missing Value Source: NWS Daily Summary

Daily Weather History Graph

Daily Weather History Graph

Search for Another Location

Airport or City:

Trip Planner

Search our weather history database for the weather conditions in past years. The results will help you decide how hot, cold, wet, or windy it might be!

Date:

Astronomy

Apr. 19, 2012 Rise Set
Actual Time 6:31 AM CDT 8:12 PM CDT
Civil Twilight 6:00 AM CDT 8:43 PM CDT
Nautical Twilight 5:23 AM CDT 9:20 PM CDT
Astronomical Twilight 4:43 AM CDT 10:00 PM CDT
Moon 5:28 AM CDT (4/19) 7:00 PM CDT (4/19)
Length of Visible Light 14h 42m
Length of Day
13h 41m
Waning Crescent, 2% of the Moon is Illuminated
Apr 19
Waning Crescent
Apr 21
New
Apr 29
First Quarter
May 5
Full
May 12
Last Quarter

Hourly Weather History & Observations

Time (CDT) Temp. Windchill Dew Point Humidity Pressure Visibility Wind Dir Wind Speed Gust Speed Precip Events Conditions
12:13 AM 42.1 °F 39.2 °F 37.6 °F 84% 30.01 in 10.0 mi North 4.6 mph - N/A   Scattered Clouds
12:33 AM 42.1 °F 39.2 °F 37.6 °F 84% 30.00 in 10.0 mi North 4.6 mph - N/A   Scattered Clouds
12:54 AM 42.3 °F 39.4 °F 37.8 °F 84% 30.00 in 10.0 mi North 4.6 mph - N/A   Scattered Clouds
1:13 AM 42.4 °F 39.6 °F 38.3 °F 85% 30.00 in 10.0 mi North 4.6 mph - N/A   Overcast
1:33 AM 42.8 °F 40.1 °F 38.3 °F 84% 30.01 in 10.0 mi North 4.6 mph - N/A   Overcast
1:53 AM 42.4 °F 39.6 °F 38.3 °F 85% 30.00 in 10.0 mi North 4.6 mph - N/A   Overcast
2:13 AM 42.3 °F 38.6 °F 38.3 °F 86% 29.99 in 10.0 mi NNE 5.8 mph - N/A   Overcast
2:33 AM 42.3 °F 39.4 °F 38.3 °F 86% 29.99 in 10.0 mi NE 4.6 mph - N/A   Overcast
2:53 AM 42.4 °F 38.8 °F 38.3 °F 85% 29.99 in 10.0 mi NE 5.8 mph - N/A   Overcast
3:13 AM 42.4 °F 40.7 °F 38.3 °F 85% 30.00 in 10.0 mi North 3.5 mph - N/A   Overcast
3:33 AM 42.3 °F 40.5 °F 38.5 °F 86% 30.01 in 10.0 mi NNW 3.5 mph - N/A   Overcast
3:53 AM 42.3 °F 37.9 °F 38.5 °F 86% 30.00 in 10.0 mi NE 6.9 mph - N/A   Overcast
4:13 AM 42.3 °F 37.9 °F 38.5 °F 86% 29.99 in 10.0 mi NE 6.9 mph - N/A   Overcast
4:33 AM 42.4 °F - 38.3 °F 85% 29.99 in 10.0 mi Calm Calm - N/A   Overcast
4:53 AM 42.8 °F 38.6 °F 38.3 °F 84% 29.99 in 10.0 mi ENE 6.9 mph - N/A   Drizzle
5:13 AM 42.3 °F 36.3 °F 38.5 °F 86% 29.99 in 10.0 mi East 10.4 mph - N/A Rain Light Rain
5:33 AM 41.9 °F 35.4 °F 38.3 °F 87% 29.98 in 10.0 mi East 11.5 mph - 0.02 in Rain Rain
5:53 AM 41.7 °F 35.6 °F 38.5 °F 88% 29.97 in 10.0 mi East 10.4 mph - 0.03 in Rain Light Rain
6:14 AM 41.5 °F 35.4 °F 37.9 °F 87% 29.98 in 10.0 mi East 10.4 mph - N/A Rain Light Rain
6:33 AM 41.4 °F 34.7 °F 37.6 °F 86% 29.98 in 10.0 mi East 11.5 mph - 0.01 in Rain Light Rain
6:53 AM 41.2 °F 35.0 °F 37.6 °F 87% 29.98 in 10.0 mi East 10.4 mph - 0.03 in Rain Rain
7:13 AM 41.0 °F 35.2 °F 37.6 °F 88% 29.98 in 10.0 mi East 9.2 mph - 0.01 in Rain Light Rain
7:34 AM 40.6 °F 32.3 °F 37.4 °F 88% 29.96 in 10.0 mi East 16.1 mph 19.6 mph 0.03 in Rain Light Rain
7:53 AM 40.5 °F 32.5 °F 37.0 °F 88% 29.97 in 10.0 mi East 15.0 mph 23.0 mph 0.03 in   Drizzle
8:33 AM 40.3 °F 32.6 °F 36.7 °F 87% 29.97 in 10.0 mi East 13.8 mph 17.3 mph 0.01 in Rain Light Rain
9:13 AM 40.1 °F 32.0 °F 36.5 °F 87% 29.96 in 10.0 mi East 15.0 mph - N/A   Drizzle
9:33 AM 39.7 °F 32.3 °F 36.3 °F 88% 29.96 in 7.0 mi East 12.7 mph 17.3 mph 0.01 in Rain Rain
9:53 AM 39.6 °F 32.5 °F 36.7 °F 89% 29.97 in 5.0 mi East 11.5 mph - 0.04 in Rain Rain
10:13 AM 39.2 °F 32.0 °F 36.5 °F 90% 29.98 in 5.0 mi East 11.5 mph - 0.03 in Rain Rain
10:33 AM 39.2 °F 31.6 °F 36.1 °F 89% 29.97 in 7.0 mi East 12.7 mph - 0.05 in Rain Light Rain
10:54 AM 39.2 °F 32.0 °F 36.1 °F 89% 29.97 in 7.0 mi ENE 11.5 mph - 0.06 in Rain Light Rain
11:13 AM 39.0 °F 29.9 °F 36.3 °F 90% 29.98 in 5.0 mi East 17.3 mph - 0.02 in Rain Rain
11:33 AM 38.5 °F 29.2 °F 35.8 °F 90% 29.99 in 7.0 mi ENE 17.3 mph - 0.04 in Rain Light Rain
12:13 PM 37.6 °F 29.6 °F 34.7 °F 89% 29.99 in 7.0 mi East 12.7 mph - N/A Rain Light Rain
12:33 PM 38.3 °F 30.1 °F 35.6 °F 90% 29.98 in 10.0 mi ENE 13.8 mph - 0.01 in Rain Light Rain
12:54 PM 38.3 °F 30.5 °F 35.6 °F 90% 29.97 in 10.0 mi ENE 12.7 mph - 0.01 in Rain Light Rain
1:13 PM 38.7 °F 30.9 °F 36.3 °F 91% 29.96 in 10.0 mi ENE 12.7 mph - 0.01 in Rain Light Rain
1:33 PM 39.0 °F 31.4 °F 36.0 °F 89% 29.96 in 10.0 mi ENE 12.7 mph 19.6 mph 0.01 in Rain Light Rain
1:53 PM 39.0 °F 30.3 °F 35.2 °F 86% 29.97 in 10.0 mi ENE 16.1 mph 20.7 mph 0.01 in Rain Light Rain
2:13 PM 39.2 °F 31.6 °F 35.2 °F 86% 29.96 in 10.0 mi NE 12.7 mph 18.4 mph N/A   Light Drizzle
2:33 PM 39.6 °F 32.1 °F 35.8 °F 86% 29.95 in 10.0 mi NE 12.7 mph 19.6 mph N/A Rain Light Rain
2:54 PM 40.1 °F 31.3 °F 36.0 °F 85% 29.94 in 10.0 mi NE 17.3 mph 23.0 mph N/A Rain Light Rain
3:13 PM 40.1 °F 32.0 °F 36.0 °F 85% 29.94 in 10.0 mi ENE 15.0 mph 24.2 mph N/A Rain Light Rain
3:33 PM 40.1 °F 31.3 °F 35.8 °F 85% 29.94 in 10.0 mi NE 17.3 mph 23.0 mph N/A Rain Light Rain
3:53 PM 40.1 °F 32.0 °F 35.6 °F 84% 29.94 in 10.0 mi NE 15.0 mph - N/A Rain Light Rain
4:13 PM 40.1 °F 32.0 °F 35.8 °F 85% 29.94 in 10.0 mi NNE 15.0 mph - N/A Rain Light Rain
4:33 PM 40.1 °F 32.4 °F 35.8 °F 85% 29.94 in 10.0 mi NE 13.8 mph - N/A Rain Light Rain
4:54 PM 39.9 °F 32.9 °F 35.6 °F 85% 29.95 in 10.0 mi NE 11.5 mph - N/A Rain Light Rain
5:13 PM 40.1 °F 32.7 °F 36.0 °F 85% 29.94 in 10.0 mi NE 12.7 mph - N/A Rain Light Rain
5:33 PM 40.1 °F 32.4 °F 35.6 °F 84% 29.95 in 10.0 mi NE 13.8 mph 18.4 mph N/A Rain Light Rain
6:13 PM 40.1 °F 32.7 °F 35.8 °F 85% 29.96 in 10.0 mi NNE 12.7 mph - N/A   Light Drizzle
6:33 PM 40.3 °F 33.9 °F 36.0 °F 85% 29.96 in 10.0 mi NE 10.4 mph - N/A   Overcast
6:53 PM 40.5 °F 35.1 °F 36.5 °F 86% 29.95 in 10.0 mi NE 8.1 mph - N/A   Overcast
7:13 PM 40.5 °F 35.8 °F 36.1 °F 85% 29.94 in 10.0 mi NE 6.9 mph - N/A   Overcast
7:33 PM 40.5 °F 35.8 °F 35.8 °F 83% 29.95 in 10.0 mi NE 6.9 mph - N/A   Mostly Cloudy
7:53 PM 40.6 °F 36.0 °F 36.5 °F 85% 29.96 in 10.0 mi NNE 6.9 mph - N/A   Overcast
8:13 PM 40.1 °F 36.9 °F 36.1 °F 86% 29.96 in 10.0 mi NNE 4.6 mph - N/A   Scattered Clouds
8:33 PM 39.2 °F 35.9 °F 35.8 °F 88% 29.97 in 10.0 mi North 4.6 mph - N/A   Scattered Clouds
8:53 PM 39.2 °F 37.0 °F 36.0 °F 88% 29.98 in 10.0 mi North 3.5 mph - N/A   Clear
9:13 PM 39.2 °F - 36.0 °F 88% 29.98 in 10.0 mi Calm Calm - N/A   Clear
9:33 PM 38.5 °F - 35.4 °F 89% 29.99 in 10.0 mi Calm Calm - N/A   Clear
9:53 PM 37.4 °F - 35.1 °F 91% 29.99 in 10.0 mi Calm Calm - N/A   Clear
10:13 PM 37.4 °F 33.8 °F 34.9 °F 91% 29.99 in 10.0 mi NNW 4.6 mph - N/A   Clear
10:33 PM 37.0 °F 33.3 °F 34.2 °F 89% 30.00 in 10.0 mi NNW 4.6 mph - N/A   Clear
10:53 PM 36.0 °F 31.1 °F 32.9 °F 89% 30.00 in 10.0 mi NNW 5.8 mph - N/A   Clear
11:13 PM 36.7 °F 32.9 °F 32.5 °F 85% 30.00 in 10.0 mi North 4.6 mph - N/A   Clear
11:33 PM 36.5 °F 32.7 °F 32.0 °F 84% 30.00 in 10.0 mi North 4.6 mph - N/A   Clear
11:53 PM 36.5 °F 31.8 °F 32.0 °F 84% 29.99 in 10.0 mi North 5.8 mph - N/A   Clear